FW0232 Weather Reports


time (UTC)temp
C
wind
direction
speed
KPH
gust
KPH
rain 1hr
cm
rain 24hr
cm
rain mn
cm
humidity
%
barometer
mb
20260505124503 11 0 0.0 0.0 0.00 0.00 0.00 90 1012.6
20260505123603 11 0 0.0 0.0 0.00 0.00 0.00 91 1012.5
20260505122703 11 0 0.0 0.0 0.00 0.00 0.00 91 1012.5
20260505121803 11 0 0.0 0.0 0.00 0.00 0.00 91 1012.5
20260505121113 11 0 0.0 0.0 0.00 0.00 0.00 91 1012.5
20260505120004 11 0 0.0 0.0 0.00 0.00 0.00 92 1012.4
20260505115403 11 0 0.0 0.0 0.00 0.00 0.00 92 1012.4
20260505114503 11 0 0.0 0.0 0.00 0.00 0.00 91 1012.4
20260505113603 11 0 0.0 0.0 0.00 0.00 0.00 91 1012.3
20260505112703 11 0 0.0 0.0 0.00 0.00 0.00 92 1012.4
20260505111803 11 0 0.0 0.0 0.00 0.00 0.00 92 1012.4
20260505110903 11 0 0.0 0.0 0.00 0.00 0.00 91 1012.3
20260505110214 11 0 0.0 0.0 0.00 0.00 0.00 91 1012.2
20260505101803 11 0 0.0 0.0 0.00 0.00 0.00 91 1011.8
20260505100903 10 0 0.0 0.0 0.00 0.00 0.00 91 1011.8
20260505100213 10 0 0.0 0.0 0.00 0.00 0.00 91 1011.8
20260505095403 10 0 0.0 0.0 0.00 0.00 0.00 90 1011.8
20260505094503 10 0 0.0 0.0 0.00 0.00 0.00 90 1011.8
20260505093603 10 0 0.0 0.0 0.00 0.00 0.00 89 1011.7
20260505092703 11 0 0.0 0.0 0.00 0.00 0.00 89 1011.6
20260505091803 11 0 0.0 0.0 0.00 0.00 0.00 89 1011.6
20260505090903 11 0 0.0 0.0 0.00 0.00 0.00 89 1011.5
20260505090213 11 0 0.0 0.0 0.00 0.00 0.00 88 1011.5
20260505085403 11 110 1.6 6.4 0.00 0.00 0.00 88 1011.3
20260505084714 11 117 0.0 8.0 0.00 0.00 0.00 88 1011.3
20260505083603 11 186 3.2 8.0 0.00 0.00 0.00 88 1011.3
20260505082703 11 179 1.6 8.0 0.00 0.00 0.00 88 1011.3
20260505081803 12 189 1.6 4.8 0.00 0.00 0.00 87 1011.3
20260505081113 12 194 1.6 3.2 0.00 0.00 0.00 87 1011.2
20260505080003 12 168 0.0 8.0 0.00 0.00 0.00 86 1011.1
20260505075403 12 180 0.0 4.8 0.00 0.00 0.00 86 1011.1
20260505074714 12 144 1.6 4.8 0.00 0.00 0.00 86 1011.0
20260505073603 12 175 1.6 6.4 0.00 0.00 0.00 86 1010.8
20260505072703 12 173 1.6 11.3 0.00 0.00 0.00 86 1010.6
20260505071803 12 181 1.6 11.3 0.00 0.00 0.00 86 1010.6
20260505071113 13 176 0.0 11.3 0.00 0.00 0.00 85 1010.6
20260505070003 13 165 1.6 9.7 0.00 0.00 0.00 85 1010.5
20260505065614 13 172 1.6 9.7 0.00 0.00 0.00 85 1010.5
20260505064713 13 180 3.2 8.0 0.00 0.00 0.00 85 1010.3
20260505063603 13 172 6.4 9.7 0.00 0.00 0.00 84 1010.1
20260505062914 13 175 6.4 14.5 0.00 0.00 0.00 84 1010.0
20260505061803 13 178 4.8 12.9 0.00 0.00 0.00 84 1009.9
20260505060903 13 178 4.8 12.9 0.00 0.00 0.00 83 1009.8
20260505060214 14 183 4.8 11.3 0.00 0.00 0.00 83 1009.8
20260505055403 14 181 4.8 8.0 0.00 0.00 0.00 82 1009.8
20260505054503 14 177 6.4 12.9 0.00 0.00 0.00 81 1009.8
20260505053603 15 181 6.4 12.9 0.00 0.00 0.00 81 1009.6
20260505052914 15 179 6.4 14.5 0.00 0.00 0.00 80 1009.6
20260505051803 15 185 8.0 16.1 0.00 0.00 0.00 79 1009.5
20260505050903 15 186 6.4 16.1 0.00 0.00 0.00 78 1009.4
20260505040903 17 186 6.4 12.9 0.00 0.00 0.00 73 1008.6
20260505040004 18 190 9.7 19.3 0.00 0.00 0.00 72 1008.3
20260505035612 18 194 11.3 20.9 0.00 0.00 0.00 72 1008.3
20260505034503 18 200 9.7 20.9 0.00 0.00 0.00 72 1008.1
20260505033813 18 184 11.3 20.9 0.00 0.00 0.00 71 1008.0
20260505032913 19 184 11.3 19.3 0.00 0.00 0.00 70 1008.0
20260505031803 19 190 9.7 20.9 0.00 0.00 0.00 70 1007.9
20260505030903 20 181 9.7 20.9 0.00 0.00 0.00 70 1007.8
20260505030003 20 188 9.7 17.7 0.00 0.00 0.00 71 1007.7
20260505025403 20 186 9.7 22.5 0.00 0.00 0.00 71 1007.7
20260505024503 20 192 11.3 22.5 0.00 0.00 0.00 70 1007.6
20260505023603 21 188 11.3 22.5 0.00 0.00 0.00 69 1007.5
20260505022915 21 188 8.0 20.9 0.00 0.00 0.00 69 1007.5
20260505022014 21 188 6.4 16.1 0.00 0.00 0.00 70 1007.5
20260505020903 22 194 6.4 14.5 0.00 0.00 0.00 69 1007.4
20260505020004 22 190 8.0 14.5 0.00 0.00 0.00 68 1007.5
20260505015614 22 203 9.7 16.1 0.00 0.00 0.00 68 1007.5
20260505014503 22 200 8.0 19.3 0.00 0.00 0.00 65 1007.4
20260505013603 23 195 8.0 14.5 0.00 0.00 0.00 65 1007.4
20260505012914 22 196 9.7 16.1 0.00 0.00 0.00 66 1007.5
20260505011803 23 196 8.0 17.7 0.00 0.00 0.00 65 1007.6
20260505010903 23 201 6.4 16.1 0.00 0.00 0.00 65 1007.7
20260505010003 23 198 8.0 16.1 0.00 0.00 0.00 65 1007.7
20260505005403 23 203 8.0 17.7 0.00 0.00 0.00 66 1007.8
20260505004503 23 206 9.7 17.7 0.00 0.00 0.00 66 1007.8
20260505003603 23 201 6.4 16.1 0.00 0.00 0.00 63 1007.8
20260505002913 23 223 6.4 16.1 0.00 0.00 0.00 63 1007.9
20260505001803 23 214 4.8 16.1 0.00 0.00 0.00 66 1007.9
20260505000903 23 215 6.4 12.9 0.00 0.00 0.00 63 1007.9
20260505000003 23 193 9.7 20.9 0.00 0.00 0.00 68 1008.0
20260504235403 23 189 9.7 19.3 0.00 0.00 0.00 65 1008.0
20260504234503 23 207 9.7 20.9 0.00 0.00 0.00 66 1008.1
20260504233603 23 216 4.8 20.9 0.00 0.00 0.00 65 1008.2
20260504232703 23 212 6.4 19.3 0.00 0.00 0.00 68 1008.2
20260504231803 23 205 8.0 19.3 0.00 0.00 0.00 67 1008.2
20260504230903 23 212 6.4 19.3 0.00 0.00 0.00 65 1008.3
20260504230003 22 179 8.0 20.9 0.00 0.00 0.00 68 1008.4
20260504225613 22 191 8.0 20.9 0.00 0.00 0.00 65 1008.5
20260504224714 23 194 6.4 17.7 0.00 0.00 0.00 65 1008.6
20260504223603 22 186 6.4 14.5 0.00 0.00 0.00 66 1008.7
20260504222703 22 193 4.8 14.5 0.00 0.00 0.00 67 1008.8
20260504221803 22 185 6.4 14.5 0.00 0.00 0.00 68 1008.8
20260504221114 21 181 6.4 16.1 0.00 0.00 0.00 66 1009.0
20260504220003 21 200 6.4 16.1 0.00 0.00 0.00 68 1009.2
20260504215403 21 198 6.4 16.1 0.00 0.00 0.00 66 1009.2
20260504214714 21 188 4.8 17.7 0.00 0.00 0.00 68 1009.2
20260504213603 21 183 4.8 16.1 0.00 0.00 0.00 67 1009.4
20260504212703 20 184 4.8 16.1 0.00 0.00 0.00 69 1009.5
20260504211803 20 164 6.4 14.5 0.00 0.00 0.00 71 1009.7
20260504210903 20 176 4.8 14.5 0.00 0.00 0.00 70 1009.8
20260504210003 20 188 4.8 16.1 0.00 0.00 0.00 70 1010.0
20260504205614 20 189 4.8 16.1 0.00 0.00 0.00 74 1010.1
20260504204713 19 199 6.4 16.1 0.00 0.00 0.00 75 1010.2
20260504203603 18 171 4.8 14.5 0.00 0.00 0.00 74 1010.4
20260504202703 18 181 6.4 17.7 0.00 0.00 0.00 75 1010.4
20260504201803 17 184 6.4 16.1 0.00 0.00 0.00 75 1010.6
20260504200903 17 190 6.4 16.1 0.00 0.00 0.00 78 1010.7
20260504200214 17 185 6.4 12.9 0.00 0.00 0.00 77 1010.7
20260504195403 17 190 8.0 20.9 0.00 0.00 0.00 80 1010.8
20260504194503 16 197 4.8 20.9 0.00 0.00 0.00 79 1010.8
20260504193603 16 194 4.8 12.9 0.00 0.00 0.00 79 1010.9
20260504192703 16 204 3.2 9.7 0.00 0.00 0.00 79 1010.9
20260504191803 16 198 4.8 12.9 0.00 0.00 0.00 80 1011.0
20260504190903 15 187 4.8 14.5 0.00 0.00 0.00 81 1011.1
20260504190003 15 192 4.8 14.5 0.00 0.00 0.00 82 1011.1
20260504185613 15 189 4.8 14.5 0.00 0.00 0.00 82 1011.1
20260504184503 15 190 6.4 17.7 0.00 0.00 0.00 82 1011.2
20260504183603 15 188 8.0 14.5 0.00 0.00 0.00 82 1011.3
20260504182703 15 183 6.4 16.1 0.00 0.00 0.00 83 1011.2
20260504181803 14 176 6.4 12.9 0.00 0.00 0.00 83 1011.1
20260504180903 14 182 6.4 12.9 0.00 0.00 0.00 84 1011.1
20260504180003 14 173 8.0 16.1 0.00 0.00 0.00 85 1011.2
20260504175403 14 184 8.0 17.7 0.00 0.00 0.00 84 1011.2
20260504174503 13 180 8.0 17.7 0.00 0.00 0.00 83 1011.2
20260504173603 13 182 9.7 17.7 0.00 0.00 0.00 84 1011.1
20260504172703 13 187 8.0 16.1 0.00 0.00 0.00 84 1011.1
20260504171803 13 176 6.4 19.3 0.00 0.00 0.00 84 1011.0
20260504171113 13 184 6.4 16.1 0.00 0.00 0.00 84 1011.1
20260504150903 12 193 8.0 16.1 0.00 0.00 0.00 88 1010.6